| time (UTC) | temp F | wind direction | speed MPH | gust MPH | rain 1hr in | rain 24hr in | rain mn in | humidity % | barometer mb |
| 20260502194051 | 72 | 352 | 2.0 | 13.0 | 0.00 | 0.00 | 0.00 | 42 | 1018.9 |
| 20260502193549 | 72 | 34 | 4.0 | 13.0 | 0.00 | 0.00 | 0.00 | 43 | 1019.0 |
| 20260502193113 | 71 | 296 | 5.0 | 14.0 | 0.00 | 0.00 | 0.00 | 42 | 1018.9 |
| 20260502192550 | 71 | 69 | 6.0 | 14.0 | 0.00 | 0.00 | 0.00 | 42 | 1018.9 |
| 20260502192048 | 71 | 51 | 4.0 | 14.0 | 0.00 | 0.00 | 0.00 | 44 | 1019.1 |
| 20260502191558 | 71 | 340 | 6.0 | 14.0 | 0.00 | 0.00 | 0.00 | 42 | 1019.1 |
| 20260502191051 | 71 | 346 | 6.0 | 16.0 | 0.00 | 0.00 | 0.00 | 40 | 1019.0 |
| 20260502190550 | 71 | 347 | 7.0 | 16.0 | 0.00 | 0.00 | 0.00 | 42 | 1019.0 |
| 20260502190053 | 71 | 44 | 5.0 | 15.0 | 0.00 | 0.00 | 0.00 | 38 | 1019.1 |
| 20260502185550 | 71 | 9 | 7.0 | 15.0 | 0.00 | 0.00 | 0.00 | 40 | 1019.2 |
| 20260502185051 | 71 | 290 | 6.0 | 12.0 | 0.00 | 0.00 | 0.00 | 45 | 1019.2 |
| 20260502184559 | 71 | 19 | 5.0 | 37.0 | 0.00 | 0.00 | 0.00 | 44 | 1019.2 |
| 20260502184048 | 71 | 60 | 9.0 | 37.0 | 0.00 | 0.00 | 0.00 | 43 | 1019.1 |
| 20260502183551 | 70 | 323 | 3.0 | 11.0 | 0.00 | 0.00 | 0.00 | 45 | 1019.2 |
| 20260502183059 | 70 | 355 | 5.0 | 14.0 | 0.00 | 0.00 | 0.00 | 42 | 1019.2 |
| 20260502182549 | 70 | 351 | 7.0 | 14.0 | 0.00 | 0.00 | 0.00 | 44 | 1019.3 |
| 20260502182052 | 70 | 316 | 7.0 | 16.0 | 0.00 | 0.00 | 0.00 | 43 | 1019.3 |
| 20260502181558 | 70 | 19 | 5.0 | 16.0 | 0.00 | 0.00 | 0.00 | 45 | 1019.4 |
| 20260502181051 | 70 | 53 | 5.0 | 12.0 | 0.00 | 0.00 | 0.00 | 43 | 1019.4 |
| 20260502180552 | 70 | 67 | 5.0 | 12.0 | 0.00 | 0.00 | 0.00 | 44 | 1019.5 |
| 20260502164051 | 68 | 61 | 7.0 | 15.0 | 0.00 | 0.00 | 0.00 | 47 | 1020.0 |
| 20260502163550 | 68 | 66 | 5.0 | 11.0 | 0.00 | 0.00 | 0.00 | 49 | 1019.9 |
| 20260502163110 | 67 | 26 | 7.0 | 13.0 | 0.00 | 0.00 | 0.00 | 47 | 1019.8 |
| 20260502162550 | 67 | 59 | 6.0 | 13.0 | 0.00 | 0.00 | 0.00 | 50 | 1020.0 |
| 20260502162049 | 67 | 27 | 6.0 | 12.0 | 0.00 | 0.00 | 0.00 | 48 | 1020.0 |
| 20260502161555 | 67 | 66 | 5.0 | 11.0 | 0.00 | 0.00 | 0.00 | 50 | 1020.0 |
| 20260502161049 | 67 | 67 | 4.0 | 11.0 | 0.00 | 0.00 | 0.00 | 51 | 1020.2 |
| 20260502160550 | 67 | 80 | 2.0 | 11.0 | 0.00 | 0.00 | 0.00 | 55 | 1020.3 |
| 20260502160106 | 66 | 24 | 6.0 | 11.0 | 0.00 | 0.00 | 0.00 | 51 | 1020.2 |
| 20260502152050 | 65 | 323 | 4.0 | 8.0 | 0.00 | 0.00 | 0.00 | 59 | 1020.2 |
| 20260502151557 | 64 | 80 | 4.0 | 9.0 | 0.00 | 0.00 | 0.00 | 58 | 1020.3 |
| 20260502151049 | 64 | 53 | 4.0 | 9.0 | 0.00 | 0.00 | 0.00 | 60 | 1020.1 |
| 20260502150549 | 64 | 5 | 4.0 | 10.0 | 0.00 | 0.00 | 0.00 | 64 | 1020.1 |
| 20260502130549 | 57 | 13 | 2.0 | 6.0 | 0.00 | 0.00 | 0.00 | 77 | 1018.7 |
| 20260502123549 | 55 | 42 | 3.0 | 8.0 | 0.00 | 0.00 | 0.00 | 82 | 1018.4 |
| 20260502123051 | 55 | 37 | 2.0 | 8.0 | 0.00 | 0.00 | 0.00 | 83 | 1018.3 |
| 20260502122551 | 54 | 336 | 1.0 | 4.0 | 0.00 | 0.00 | 0.00 | 84 | 1018.2 |
| 20260502122051 | 54 | 346 | 1.0 | 4.0 | 0.00 | 0.00 | 0.00 | 83 | 1018.2 |
| 20260502121551 | 54 | 346 | 0.0 | 4.0 | 0.00 | 0.00 | 0.00 | 83 | 1018.1 |
| 20260502121054 | 54 | 346 | 0.0 | 5.0 | 0.00 | 0.00 | 0.00 | 83 | 1017.9 |
| 20260502120552 | 54 | 313 | 1.0 | 5.0 | 0.00 | 0.00 | 0.00 | 83 | 1017.9 |
| 20260502120105 | 54 | 0 | 1.0 | 4.0 | 0.00 | 0.00 | 0.00 | 83 | 1017.8 |
| 20260502115553 | 54 | 352 | 1.0 | 4.0 | 0.00 | 0.00 | 0.00 | 83 | 1017.7 |
| 20260502115048 | 54 | 0 | 0.0 | 2.0 | 0.00 | 0.00 | 0.00 | 83 | 1017.7 |
| 20260502114634 | 54 | 0 | 0.0 | 3.0 | 0.00 | 0.00 | 0.00 | 83 | 1017.6 |
| 20260502114054 | 54 | 341 | 0.0 | 4.0 | 0.00 | 0.00 | 0.00 | 83 | 1017.4 |
| 20260502113554 | 54 | 0 | 0.0 | 4.0 | 0.00 | 0.00 | 0.00 | 83 | 1017.3 |
| 20260502113054 | 54 | 341 | 0.0 | 3.0 | 0.00 | 0.00 | 0.00 | 83 | 1017.4 |
| 20260502112553 | 54 | 350 | 0.0 | 3.0 | 0.00 | 0.00 | 0.00 | 83 | 1017.2 |
| 20260502112053 | 54 | 0 | 1.0 | 4.0 | 0.00 | 0.00 | 0.00 | 83 | 1017.1 |
| 20260502111554 | 54 | 0 | 0.0 | 4.0 | 0.00 | 0.00 | 0.00 | 83 | 1017.1 |
| 20260502111053 | 54 | 0 | 1.0 | 4.0 | 0.00 | 0.00 | 0.00 | 83 | 1017.1 |
| 20260502110554 | 54 | 0 | 1.0 | 4.0 | 0.00 | 0.00 | 0.00 | 83 | 1016.9 |
| 20260502110055 | 54 | 325 | 1.0 | 4.0 | 0.00 | 0.00 | 0.00 | 83 | 1017.0 |
| 20260502105557 | 54 | 9 | 2.0 | 5.0 | 0.00 | 0.00 | 0.00 | 83 | 1016.9 |
| 20260502105053 | 54 | 346 | 2.0 | 5.0 | 0.00 | 0.00 | 0.00 | 83 | 1016.8 |
| 20260502104553 | 54 | 0 | 0.0 | 3.0 | 0.00 | 0.00 | 0.00 | 83 | 1016.8 |
| 20260502104052 | 54 | 338 | 1.0 | 5.0 | 0.00 | 0.00 | 0.00 | 83 | 1016.7 |
| 20260502103550 | 54 | 0 | 0.0 | 5.0 | 0.00 | 0.00 | 0.00 | 83 | 1016.6 |
| 20260502103054 | 54 | 344 | 1.0 | 5.0 | 0.00 | 0.00 | 0.00 | 83 | 1016.7 |
| 20260502102554 | 54 | 15 | 1.0 | 4.0 | 0.00 | 0.00 | 0.00 | 83 | 1016.5 |
| 20260502102054 | 54 | 352 | 1.0 | 3.0 | 0.00 | 0.00 | 0.00 | 83 | 1016.6 |
| 20260502101614 | 54 | 0 | 0.0 | 3.0 | 0.00 | 0.00 | 0.00 | 82 | 1016.5 |
| 20260502101054 | 54 | 0 | 0.0 | 5.0 | 0.00 | 0.00 | 0.00 | 83 | 1016.5 |
| 20260502100555 | 55 | 350 | 1.0 | 5.0 | 0.00 | 0.00 | 0.00 | 83 | 1016.5 |
| 20260502100108 | 55 | 360 | 1.0 | 5.0 | 0.00 | 0.00 | 0.00 | 83 | 1016.5 |
| 20260502091053 | 55 | 348 | 0.0 | 2.0 | 0.00 | 0.00 | 0.00 | 83 | 1016.1 |
| 20260502090553 | 55 | 0 | 0.0 | 3.0 | 0.00 | 0.00 | 0.00 | 83 | 1016.0 |
| 20260502071051 | 55 | 0 | 0.0 | 0.0 | 0.00 | 0.00 | 0.00 | 88 | 1016.1 |
| 20260502070552 | 55 | 0 | 0.0 | 0.0 | 0.00 | 0.00 | 0.00 | 88 | 1016.0 |
| 20260502070108 | 55 | 0 | 0.0 | 0.0 | 0.00 | 0.00 | 0.00 | 88 | 1016.1 |
| 20260502065550 | 56 | 0 | 0.0 | 0.0 | 0.00 | 0.00 | 0.00 | 88 | 1016.2 |
| 20260502065049 | 56 | 0 | 0.0 | 0.0 | 0.00 | 0.00 | 0.00 | 88 | 1016.3 |
| 20260502064621 | 56 | 0 | 0.0 | 0.0 | 0.00 | 0.00 | 0.00 | 88 | 1016.3 |
| 20260502064050 | 56 | 0 | 0.0 | 0.0 | 0.00 | 0.00 | 0.00 | 87 | 1016.4 |
| 20260502063550 | 56 | 0 | 0.0 | 0.0 | 0.00 | 0.00 | 0.00 | 87 | 1016.5 |
| 20260502063119 | 56 | 0 | 0.0 | 0.0 | 0.00 | 0.00 | 0.00 | 87 | 1016.4 |
| 20260502062555 | 56 | 0 | 0.0 | 0.0 | 0.00 | 0.00 | 0.00 | 87 | 1016.7 |
| 20260502062049 | 56 | 0 | 0.0 | 0.0 | 0.00 | 0.00 | 0.00 | 87 | 1016.7 |
| 20260502061554 | 56 | 0 | 0.0 | 1.0 | 0.00 | 0.00 | 0.00 | 87 | 1016.6 |
| 20260502061049 | 56 | 0 | 0.0 | 2.0 | 0.00 | 0.00 | 0.00 | 87 | 1016.4 |
| 20260502060554 | 56 | 0 | 0.0 | 2.0 | 0.00 | 0.00 | 0.00 | 87 | 1016.4 |
| 20260502060053 | 56 | 0 | 0.0 | 3.0 | 0.00 | 0.00 | 0.00 | 87 | 1016.4 |
| 20260502055552 | 56 | 352 | 1.0 | 3.0 | 0.00 | 0.00 | 0.00 | 87 | 1016.4 |
| 20260502055051 | 56 | 345 | 0.0 | 2.0 | 0.00 | 0.00 | 0.00 | 87 | 1016.6 |
| 20260502054552 | 56 | 0 | 0.0 | 1.0 | 0.00 | 0.00 | 0.00 | 87 | 1016.8 |
| 20260502054050 | 56 | 0 | 0.0 | 0.0 | 0.00 | 0.00 | 0.00 | 87 | 1017.2 |
| 20260502053551 | 56 | 0 | 0.0 | 0.0 | 0.00 | 0.00 | 0.00 | 87 | 1017.2 |
| 20260502053059 | 56 | 0 | 0.0 | 0.0 | 0.00 | 0.00 | 0.00 | 87 | 1017.2 |
| 20260502052549 | 56 | 0 | 0.0 | 0.0 | 0.00 | 0.00 | 0.00 | 87 | 1017.0 |
| 20260502052053 | 56 | 0 | 0.0 | 2.0 | 0.00 | 0.00 | 0.00 | 87 | 1016.8 |
| 20260502051554 | 56 | 0 | 0.0 | 2.0 | 0.00 | 0.00 | 0.00 | 87 | 1016.7 |
| 20260502051055 | 56 | 0 | 0.0 | 2.0 | 0.00 | 0.00 | 0.00 | 87 | 1016.8 |
| 20260502050550 | 56 | 0 | 0.0 | 0.0 | 0.00 | 0.00 | 0.00 | 86 | 1016.8 |
| 20260502050056 | 56 | 0 | 0.0 | 1.0 | 0.00 | 0.00 | 0.00 | 86 | 1016.8 |
| 20260502045550 | 56 | 0 | 0.0 | 1.0 | 0.00 | 0.00 | 0.00 | 86 | 1016.6 |
| 20260502045050 | 56 | 0 | 0.0 | 2.0 | 0.00 | 0.00 | 0.00 | 86 | 1016.5 |
| 20260502044552 | 56 | 0 | 0.0 | 2.0 | 0.00 | 0.00 | 0.00 | 86 | 1016.6 |
| 20260502044051 | 57 | 56 | 0.0 | 2.0 | 0.00 | 0.00 | 0.00 | 86 | 1016.6 |
| 20260502043549 | 57 | 0 | 0.0 | 1.0 | 0.00 | 0.00 | 0.00 | 86 | 1016.5 |
| 20260502043125 | 57 | 0 | 0.0 | 1.0 | 0.00 | 0.00 | 0.00 | 86 | 1016.8 |
| 20260502042550 | 57 | 0 | 0.0 | 1.0 | 0.00 | 0.00 | 0.00 | 86 | 1016.5 |
| 20260502042050 | 57 | 0 | 0.0 | 1.0 | 0.00 | 0.00 | 0.00 | 86 | 1016.8 |
| 20260502041602 | 57 | 0 | 0.0 | 2.0 | 0.00 | 0.00 | 0.00 | 86 | 1017.2 |
| 20260502041054 | 57 | 5 | 0.0 | 2.0 | 0.00 | 0.00 | 0.00 | 87 | 1017.0 |
| 20260502040549 | 57 | 23 | 0.0 | 2.0 | 0.00 | 0.00 | 0.00 | 87 | 1016.9 |
| 20260502040059 | 57 | 0 | 0.0 | 2.0 | 0.00 | 0.00 | 0.00 | 87 | 1017.2 |
| 20260502035550 | 57 | 348 | 0.0 | 4.0 | 0.00 | 0.00 | 0.00 | 87 | 1016.9 |
| 20260502035050 | 57 | 0 | 0.0 | 4.0 | 0.00 | 0.00 | 0.00 | 88 | 1016.9 |
| 20260502034556 | 57 | 346 | 1.0 | 4.0 | 0.00 | 0.00 | 0.00 | 88 | 1016.9 |
| 20260502034050 | 57 | 0 | 0.0 | 3.0 | 0.00 | 0.00 | 0.00 | 88 | 1016.8 |
| 20260502033549 | 57 | 0 | 0.0 | 4.0 | 0.00 | 0.00 | 0.00 | 88 | 1016.5 |
| 20260502033053 | 57 | 337 | 0.0 | 4.0 | 0.00 | 0.00 | 0.00 | 88 | 1016.3 |
| 20260502032550 | 57 | 318 | 0.0 | 4.0 | 0.00 | 0.00 | 0.00 | 88 | 1016.2 |
| 20260502032052 | 57 | 0 | 0.0 | 4.0 | 0.00 | 0.00 | 0.00 | 88 | 1016.2 |
| 20260502031556 | 57 | 0 | 0.0 | 4.0 | 0.00 | 0.00 | 0.00 | 88 | 1016.2 |
| 20260502031050 | 57 | 333 | 0.0 | 4.0 | 0.00 | 0.00 | 0.00 | 88 | 1015.9 |
| 20260502030549 | 57 | 0 | 0.0 | 4.0 | 0.00 | 0.00 | 0.00 | 88 | 1016.0 |
| 20260502025549 | 57 | 0 | 0.0 | 0.0 | 0.00 | 0.00 | 0.00 | 88 | 1015.4 |
| 20260502025049 | 57 | 0 | 0.0 | 0.0 | 0.00 | 0.00 | 0.00 | 88 | 1015.5 |
| 20260502024602 | 57 | 0 | 0.0 | 0.0 | 0.00 | 0.00 | 0.00 | 88 | 1015.7 |
| 20260502024050 | 57 | 0 | 0.0 | 1.0 | 0.00 | 0.00 | 0.00 | 88 | 1015.7 |
| 20260502023550 | 57 | 0 | 0.0 | 1.0 | 0.00 | 0.00 | 0.00 | 88 | 1015.4 |
| 20260502023107 | 57 | 0 | 0.0 | 1.0 | 0.00 | 0.00 | 0.00 | 87 | 1015.2 |
| 20260502022549 | 57 | 0 | 0.0 | 1.0 | 0.00 | 0.00 | 0.00 | 87 | 1015.2 |
| 20260502022113 | 57 | 0 | 0.0 | 1.0 | 0.00 | 0.00 | 0.00 | 88 | 1015.1 |
| 20260502021554 | 57 | 0 | 0.0 | 1.0 | 0.00 | 0.00 | 0.00 | 87 | 1015.2 |
| 20260502021050 | 57 | 0 | 0.0 | 2.0 | 0.00 | 0.00 | 0.00 | 87 | 1015.1 |
| 20260502020554 | 57 | 0 | 0.0 | 2.0 | 0.00 | 0.00 | 0.00 | 87 | 1015.0 |
| 20260502020056 | 58 | 0 | 0.0 | 0.0 | 0.00 | 0.00 | 0.00 | 87 | 1014.6 |
| 20260502015550 | 58 | 0 | 0.0 | 0.0 | 0.00 | 0.00 | 0.00 | 87 | 1014.9 |
| 20260502015050 | 58 | 0 | 0.0 | 0.0 | 0.00 | 0.00 | 0.00 | 87 | 1015.1 |
| 20260502014554 | 58 | 0 | 0.0 | 0.0 | 0.00 | 0.00 | 0.00 | 87 | 1015.2 |
| 20260502014051 | 58 | 0 | 0.0 | 0.0 | 0.00 | 0.00 | 0.00 | 86 | 1015.2 |
| 20260502013550 | 58 | 0 | 0.0 | 0.0 | 0.00 | 0.00 | 0.00 | 86 | 1015.2 |
| 20260502013101 | 58 | 0 | 0.0 | 0.0 | 0.00 | 0.00 | 0.00 | 86 | 1015.3 |
| 20260502012549 | 58 | 0 | 0.0 | 0.0 | 0.00 | 0.00 | 0.00 | 85 | 1015.6 |
| 20260502012049 | 58 | 0 | 0.0 | 0.0 | 0.00 | 0.00 | 0.00 | 85 | 1015.8 |
| 20260502011604 | 59 | 0 | 0.0 | 0.0 | 0.00 | 0.00 | 0.00 | 85 | 1015.8 |
| 20260502011049 | 59 | 0 | 0.0 | 0.0 | 0.00 | 0.00 | 0.00 | 85 | 1015.8 |
| 20260502010549 | 59 | 0 | 0.0 | 0.0 | 0.00 | 0.00 | 0.00 | 85 | 1015.7 |
| 20260502010108 | 59 | 0 | 0.0 | 0.0 | 0.00 | 0.00 | 0.00 | 84 | 1015.4 |
| 20260502005550 | 59 | 0 | 0.0 | 0.0 | 0.00 | 0.00 | 0.00 | 84 | 1015.4 |
| 20260502005050 | 59 | 0 | 0.0 | 0.0 | 0.00 | 0.00 | 0.00 | 84 | 1015.5 |
| 20260502004555 | 59 | 0 | 0.0 | 0.0 | 0.00 | 0.00 | 0.00 | 83 | 1015.7 |
| 20260502004052 | 60 | 0 | 0.0 | 0.0 | 0.00 | 0.00 | 0.00 | 83 | 1015.7 |
| 20260502003549 | 60 | 0 | 0.0 | 0.0 | 0.00 | 0.00 | 0.00 | 82 | 1015.7 |
| 20260502003052 | 60 | 0 | 0.0 | 0.0 | 0.00 | 0.00 | 0.00 | 82 | 1015.6 |
| 20260502002549 | 60 | 0 | 0.0 | 0.0 | 0.00 | 0.00 | 0.00 | 81 | 1015.6 |
| 20260502002050 | 60 | 0 | 0.0 | 0.0 | 0.00 | 0.00 | 0.00 | 81 | 1015.5 |
| 20260502001558 | 60 | 0 | 0.0 | 0.0 | 0.00 | 0.00 | 0.00 | 80 | 1015.5 |
| 20260502001050 | 60 | 0 | 0.0 | 0.0 | 0.00 | 0.00 | 0.00 | 80 | 1015.6 |
| 20260502000550 | 60 | 0 | 0.0 | 0.0 | 0.00 | 0.00 | 0.00 | 80 | 1015.6 |
| 20260502000055 | 60 | 0 | 0.0 | 0.0 | 0.00 | 0.00 | 0.00 | 80 | 1015.4 |
| 20260501235550 | 60 | 0 | 0.0 | 0.0 | 0.00 | 0.00 | 0.00 | 79 | 1015.4 |
| 20260501235050 | 60 | 0 | 0.0 | 0.0 | 0.00 | 0.00 | 0.00 | 78 | 1015.3 |
| 20260501234557 | 60 | 0 | 0.0 | 0.0 | 0.00 | 0.00 | 0.00 | 78 | 1015.2 |
| 20260501234050 | 60 | 0 | 0.0 | 0.0 | 0.00 | 0.00 | 0.00 | 78 | 1015.0 |
| 20260501233555 | 60 | 0 | 0.0 | 0.0 | 0.00 | 0.00 | 0.00 | 78 | 1014.9 |
| 20260501233104 | 60 | 0 | 0.0 | 3.0 | 0.00 | 0.00 | 0.00 | 77 | 1014.9 |
| 20260501232549 | 60 | 0 | 0.0 | 3.0 | 0.00 | 0.00 | 0.00 | 76 | 1014.7 |
| 20260501232050 | 60 | 15 | 1.0 | 4.0 | 0.00 | 0.00 | 0.00 | 76 | 1014.7 |
| 20260501231559 | 60 | 36 | 1.0 | 4.0 | 0.00 | 0.00 | 0.00 | 76 | 1014.6 |
| 20260501231053 | 60 | 36 | 2.0 | 4.0 | 0.00 | 0.00 | 0.00 | 75 | 1014.6 |
| 20260501230553 | 60 | 25 | 1.0 | 6.0 | 0.00 | 0.00 | 0.00 | 75 | 1014.6 |
| 20260501230055 | 60 | 5 | 2.0 | 8.0 | 0.00 | 0.00 | 0.00 | 75 | 1014.4 |
| 20260501225554 | 60 | 5 | 2.0 | 8.0 | 0.00 | 0.00 | 0.00 | 75 | 1014.2 |
| 20260501225053 | 60 | 58 | 3.0 | 8.0 | 0.00 | 0.00 | 0.00 | 75 | 1014.2 |
| 20260501224554 | 60 | 22 | 1.0 | 5.0 | 0.00 | 0.00 | 0.00 | 75 | 1014.0 |
| 20260501224055 | 60 | 36 | 3.0 | 6.0 | 0.00 | 0.00 | 0.00 | 74 | 1013.8 |
| 20260501223556 | 60 | 40 | 2.0 | 6.0 | 0.00 | 0.00 | 0.00 | 74 | 1014.1 |
| 20260501223054 | 60 | 352 | 4.0 | 10.0 | 0.00 | 0.00 | 0.00 | 73 | 1014.0 |
| 20260501222554 | 60 | 32 | 4.0 | 10.0 | 0.00 | 0.00 | 0.00 | 73 | 1013.7 |
| 20260501222050 | 60 | 38 | 3.0 | 10.0 | 0.00 | 0.00 | 0.00 | 73 | 1013.5 |
| 20260501221555 | 60 | 30 | 5.0 | 10.0 | 0.00 | 0.00 | 0.00 | 74 | 1013.0 |
| 20260501221053 | 60 | 15 | 4.0 | 12.0 | 0.00 | 0.00 | 0.00 | 75 | 1013.0 |
| 20260501220554 | 60 | 55 | 5.0 | 12.0 | 0.00 | 0.00 | 0.00 | 75 | 1013.1 |
| 20260501220108 | 60 | 17 | 5.0 | 12.0 | 0.00 | 0.00 | 0.00 | 76 | 1013.0 |
| 20260501215554 | 60 | 51 | 5.0 | 10.0 | 0.00 | 0.00 | 0.00 | 75 | 1013.0 |
| 20260501215058 | 60 | 85 | 5.0 | 10.0 | 0.00 | 0.00 | 0.00 | 75 | 1013.0 |
| 20260501214552 | 60 | 63 | 4.0 | 9.0 | 0.00 | 0.00 | 0.00 | 75 | 1013.0 |
| 20260501214054 | 60 | 68 | 3.0 | 9.0 | 0.00 | 0.00 | 0.00 | 75 | 1013.1 |
| 20260501213553 | 60 | 108 | 2.0 | 11.0 | 0.00 | 0.00 | 0.00 | 75 | 1013.2 |
| 20260501213100 | 60 | 79 | 4.0 | 13.0 | 0.00 | 0.00 | 0.00 | 75 | 1013.2 |
| 20260501212555 | 60 | 34 | 6.0 | 13.0 | 0.00 | 0.00 | 0.00 | 74 | 1013.5 |
| 20260501212053 | 60 | 11 | 5.0 | 11.0 | 0.00 | 0.00 | 0.00 | 74 | 1013.5 |
| 20260501211600 | 60 | 56 | 6.0 | 11.0 | 0.00 | 0.00 | 0.00 | 75 | 1013.1 |
| 20260501211053 | 60 | 74 | 3.0 | 8.0 | 0.00 | 0.00 | 0.00 | 75 | 1013.3 |
| 20260501210554 | 60 | 52 | 3.0 | 9.0 | 0.00 | 0.00 | 0.00 | 75 | 1013.7 |
| 20260501210055 | 60 | 97 | 4.0 | 9.0 | 0.00 | 0.00 | 0.00 | 76 | 1014.0 |
| 20260501205550 | 60 | 55 | 4.0 | 9.0 | 0.00 | 0.00 | 0.00 | 77 | 1014.0 |
| 20260501205055 | 60 | 61 | 4.0 | 9.0 | 0.00 | 0.00 | 0.00 | 78 | 1014.0 |
| 20260501204603 | 60 | 54 | 2.0 | 6.0 | 0.00 | 0.00 | 0.00 | 79 | 1014.0 |
| 20260501204053 | 60 | 44 | 2.0 | 7.0 | 0.00 | 0.00 | 0.00 | 79 | 1014.3 |
| 20260501203553 | 60 | 63 | 3.0 | 7.0 | 0.00 | 0.00 | 0.00 | 78 | 1014.5 |
| 20260501203054 | 60 | 348 | 2.0 | 6.0 | 0.00 | 0.00 | 0.00 | 78 | 1014.6 |
| 20260501202555 | 59 | 48 | 3.0 | 6.0 | 0.00 | 0.00 | 0.00 | 77 | 1014.5 |
| 20260501202054 | 59 | 47 | 2.0 | 7.0 | 0.00 | 0.00 | 0.00 | 78 | 1014.7 |
| 20260501201557 | 59 | 28 | 1.0 | 7.0 | 0.00 | 0.00 | 0.00 | 79 | 1014.7 |
| 20260501201053 | 59 | 61 | 2.0 | 7.0 | 0.00 | 0.00 | 0.00 | 78 | 1014.8 |
| 20260501200553 | 59 | 82 | 2.0 | 7.0 | 0.00 | 0.00 | 0.00 | 78 | 1014.9 |
| 20260501200051 | 59 | 66 | 1.0 | 7.0 | 0.00 | 0.00 | 0.00 | 78 | 1014.9 |
| 20260501195553 | 59 | 338 | 3.0 | 7.0 | 0.00 | 0.00 | 0.00 | 79 | 1015.0 |
| 20260501195054 | 59 | 0 | 2.0 | 7.0 | 0.00 | 0.00 | 0.00 | 78 | 1015.0 |
| 20260501194555 | 59 | 77 | 2.0 | 6.0 | 0.00 | 0.00 | 0.00 | 78 | 1015.2 |